Regional Weather Roundup
Issued by NWS

Home | Current Version | Previous Version | Text Only | Print | Product List | Glossary On
Versions: 1 2 3 4 5 6 7 8 9 10 11 12 13 14 15 16 17 18 19 20 21 22 23 24 25 26 27 28 29 30 31 32 33 34 35 36 37 38 39 40 41 42 43 44 45 46 47 48 49 50
000
ASMX46 KSGX 280403
RWRMX

MEXICAN WEATHER ROUNDUP
NATIONAL WEATHER SERVICE SAN DIEGO CA
800 PM PST SAT DEC 27 2014

BAJA CALIFORNIA

CITY           SKY/WX    TMP DP  RH WIND       PRES   REMARKS
ENSENADA NW      N/A     55  32  42 E15       30.27R
LA PAZ         CLEAR     63  43  48 N12       30.17R
MEXICALI       CLEAR     46  12  25 W9        30.36R
S.J. DEL CABO  CLEAR     61  46  59 W13       30.12R
TIJUANA        PTCLDY    50  14  23 SE6       30.34R

NORTHWESTERN MEXICO

CITY           SKY/WX    TMP DP  RH WIND       PRES   REMARKS
CHIHUAHUA      LGT RAIN  37  32  81 N15G26    30.23R WCI  28
CULIACAN       CLEAR     64  48  55 N12       30.05R
HERMOSILLO     CLEAR     50  14  23 CALM      30.20R
JUAREZ         PTCLDY    37  34  87 SE5       30.21R WCI  34
LOS MOCHIS     CLEAR     54  36  50 NW7       30.13R
OBREGON        CLEAR     50  12  22 N6        30.11R

NORTHEASTERN MEXICO

CITY           SKY/WX    TMP DP  RH WIND       PRES   REMARKS
MONTERREY      LGT RAIN  50  48  93 NW8       30.16F
REYNOSA        CLOUDY    55  46  71 NW9G21    30.16R
SALTILLO       LGT RAIN  57  48  72 SE9       30.18F
TORREON        MOCLDY    68  41  37 S16       30.03R
VICTORIA       MOCLDY    64  50  59 NW12G23   30.11R

WESTERN MEXICO

CITY           SKY/WX    TMP DP  RH WIND       PRES   REMARKS
AGUASCALIENTES CLOUDY    55  45  67 S6        30.31R
DURANGO        CLOUDY    52  41  66 SE9       30.23S
GUADALAJARA    MOCLDY    61  54  77 CALM      30.25R
MAZATLAN       CLEAR     63  57  82 CALM      30.04R
PTO. VALLARTA  LGT RAIN  72  70  94 NE5       30.04R

CENTRAL MEXICO

CITY           SKY/WX    TMP DP  RH WIND       PRES   REMARKS
LEON           CLOUDY    57  41  54 NE5       30.35R
MEXICO CITY    PTCLDY    61  45  55 W5        30.35R
MORELIA        MOCLDY    54  48  82 CALM      30.30R
PUEBLA         MOCLDY    54  50  87 CALM      30.36R
QUERETARO      MOCLDY    59  43  55 CALM      30.34R
S. LUIS POTOSI PTCLDY    63  36  36 SE5       30.25R
TAMPICO        PTCLDY    72  70  94 E7        30.01R
TOLUCA         PTCLDY    50  45  81 W6        30.44R
VERACRUZ       CLOUDY    70  68  94 CALM      29.98S FOG

SOUTHERN MEXICO

CITY           SKY/WX    TMP DP  RH WIND       PRES   REMARKS
ACAPULCO       PTCLDY    81  75  83 W7        29.95R
OAXACA         CLOUDY    61  48  63 CALM      30.25R
TAPACHULA      CLEAR     79  73  83 CALM      29.97R
TUX. GUTIERREZ CLEAR     70  63  78 CALM      30.01R
VILLAHERMOSA   CLEAR     70  68  94 CALM      29.98R

YUCATAN PENINSULA

CITY           SKY/WX    TMP DP  RH WIND       PRES   REMARKS
CAMPECHE       CLEAR     77  72  83 SE8       29.99R
CANCUN         PTCLDY    79  73  83 E7        30.08S
COZUMEL        PTCLDY    70  70 100 CALM      30.08S
MERIDA         CLEAR     73  68  83 SE9       30.03S

$$




USA.gov is the U.S. government's official web portal to all federal, state and local government web resources and services.